Left ArrowRight Arrow

44.8408, -93.29828

Hourly Observations for June 13, 2024

Temp ( °F °C ) Dew Point ( °F °C ) Humidity (%) Winds ( mph kmh ) Pressure ( in mb ) Visibility ( mi km ) Precip ( " mm )
12:07 am 00:07 Cloudy with Nearby Thunderstorms 72 22.2 66 18.9 82 82 ENE 7 11 29.67 1005 10 16 0.01 0.13
12:22 am 00:22 Cloudy with Light Rain 70 21.1 66 18.9 87 87 E 10 17 29.68 1005 10 16 0.01 0.13
12:29 am 00:29 Mostly Cloudy with Nearby Thunderstorms 70 21.1 66 18.9 87 87 ESE 7 11 29.69 1006 10 16 0.01 0.13
12:53 am 00:53 Mostly Cloudy with Nearby Thunderstorms 70 21.1 66 18.9 87 87 SW 7 11 29.71 1006 10 16 0.01 0.13
1:16 am 01:16 Partly Cloudy 70 21.1 66 18.9 87 87 S 6 9 29.67 1005 10 16 0.00 0.00
1:53 am 01:53 Partly Cloudy 68 20 65 18.3 90 90 SSE 6 9 29.68 1005 10 16 0.00 0.00
2:53 am 02:53 Clear 67 19.4 65 18.3 93 93 SE 5 7 29.68 1005 10 16 0.00 0.00
3:53 am 03:53 Clear with Mist and Fog 67 19.4 63 17.2 87 87 SSW 3 6 29.68 1005 6 10 0.00 0.00
4:06 am 04:06 Clear with Mist and Fog 66 18.9 63 17.2 90 90 S 5 7 29.68 1005 2 3 0.00 0.00
4:12 am 04:12 Cloudy with Mist and Fog 66 18.9 63 17.2 90 90 S 5 7 29.68 1005 1 1 0.00 0.00
4:26 am 04:26 Mostly Clear with Mist and Fog 66 18.9 63 17.2 90 90 S 5 7 29.68 1005 2 3 0.00 0.00
4:40 am 04:40 Mostly Clear with Mist and Fog 66 18.9 63 17.2 90 90 Calm 29.68 1005 5 8 0.00 0.00
4:53 am 04:53 Clear 65 18.3 63 17.2 93 93 Calm 29.69 1005 7 11 0.00 0.00
5:53 am 05:53 Partly Cloudy with Patchy Fog 64 17.8 62 16.7 93 93 Calm 29.70 1006 7 11 0.00 0.00
6:53 am 06:53 Mostly Cloudy with Patchy Fog 67 19.4 63 17.2 87 87 W 3 6 29.74 1007 10 16 0.00 0.00
7:53 am 07:53 Mostly Cloudy 68 20 58 14.4 70 70 NNW 8 13 29.78 1009 10 16 0.00 0.00
8:53 am 08:53 Mostly Cloudy 70 21.1 56 13.3 61 61 NW 5 7 29.81 1010 10 16 0.00 0.00
9:53 am 09:53 Mostly Cloudy 70 21.1 56 13.3 61 61 SW 6 9 29.84 1010 10 16 0.00 0.00
10:53 am 10:53 Mostly Cloudy 72 22.2 56 13.3 57 57 W 14 22 29.86 1011 10 16 0.00 0.00
11:53 am 11:53 Mostly Cloudy 74 23.3 55 12.8 52 52 W 6 9 29.88 1012 10 16 0.00 0.00
12:53 pm 12:53 Mostly Sunny 79 26.1 56 13.3 45 45 WNW 7 11 29.85 1011 10 16 0.00 0.00
1:53 pm 13:53 Mostly Sunny 82 27.8 51 10.6 34 34 NNW 12 19 29.84 1011 10 16 0.00 0.00
2:53 pm 14:53 Mostly Sunny 82 27.8 51 10.6 34 34 NNW 10 17 29.83 1010 10 16 0.00 0.00
3:53 pm 15:53 Mostly Sunny 84 28.9 49 9.4 30 30 NW 17 28 29.84 1010 10 16 0.00 0.00
4:53 pm 16:53 Mostly Sunny 83 28.3 45 7.2 26 26 NNW 17 28 29.85 1011 10 16 0.00 0.00
5:53 pm 17:53 Mostly Sunny 83 28.3 46 7.8 28 28 NW 13 20 29.85 1011 10 16 0.00 0.00
6:53 pm 18:53 Mostly Sunny 82 27.8 43 6.1 25 25 W 10 17 29.86 1011 10 16 0.00 0.00
7:53 pm 19:53 Mostly Sunny 80 26.7 44 6.7 28 28 WNW 5 7 29.86 1011 10 16 0.00 0.00
8:53 pm 20:53 Mostly Sunny 79 26.1 46 7.8 31 31 WSW 3 6 29.85 1011 10 16 0.00 0.00
9:53 pm 21:53 Mostly Clear 73 22.8 51 10.6 46 46 WNW 7 11 29.87 1012 10 16 0.00 0.00
10:53 pm 22:53 Clear 73 22.8 47 8.3 39 39 NNW 13 20 29.90 1013 10 16 0.00 0.00
11:53 pm 23:53 Clear 72 22.2 48 8.9 43 43 NNW 12 19 29.93 1013 10 16 0.00 0.00

Powered by Vaisala Xweather